"Pseudo-MPEC" for P21kZh5

Created 2021 Sep 15 16:07:27 UT using Find_Orb

Click here for an explanation of pseudo-MPECs

 
 Astrometry: 
     P21kZh5  C2021 09 11G_CD;Elxp[\@Y:\AU=](pC;Xx%08u!%vaHtVHgUrH7AstrometryF52
     P21kZh5  C2021 09 11l[Q(#`E:B]]N6_Nredacted;k:SA!U2#)gu+XgfcpclickCI;^F1F52
     P21kZh5  C2021 09 11u]`1y9E9lAoH]'%@HUKBkCliFbMlsP3h*2')LNJAP-U'J0,*-x'SF52
     P21kZh5  C2021 09 13.43009 03 49 11.81 -12 04 18.9    ~9E7b 22.3 GVNEOCPG96
     P21kZh5  C2021 09 13.43489 03 49 11.51 -12 04 11.6    ~9E7b 21.7 GVNEOCPG96
     P21kZh5  C2021 09 13.44448 03 49 10.83 -12 03 57.2    ~9E7b 21.9 GVNEOCPG96
     P21kZh5 |C2021 09 15AM;H@iJJ8T5t];H.here6Ro8aQr]Y5'2VT($Nq)xMA,oD1q,GI!9807
     P21kZh5 |C2021 09 151,/]j/pY6(6EdnM5wLcs2Yh0k`lcr,t$;1H%'(;d:Nfhdn'7:%k+807
     P21kZh5 |C2021 09 15?-x)%^W^yi,Xp4t4,hcMV[7JN+V-vbM]:0=xg!QVa0'P^;\LX/)9807
     P21kZh5  C2021 09 15-U(l26hN=LBMi@:DKK+5R[smrL[]?6Du7-.%5%+WRNQGLLXl$meKF51
     P21kZh5  C2021 09 15??QUVqk!lc8SL=hQ#E^Qv_$R16Di]d:W]F2:=W;c@SFJ^RM)jYYOF51
     P21kZh5  C2021 09 157e:'0]dNQforA1w-K:df#_ss+DW7K:'*s0u_$IaAQ9b6Jh+h.bM(F51
     P21kZh5  C2021 09 15\3LmJw.explanation,\[Wtu4w\UNOK7@uYKdggkoI$uq)M%5c:+F51

Station data:
(807) Cerro Tololo Observatory, La Serena  (S30.169136 W70.805900)  Chile.
(F51) Pan-STARRS 1, Haleakala  (N20.707235 W156.255910)  US/Hawaii.
   Observers N. Primak, A. Schultz, S. Watters, J. Thiel, T. Goggia. Measurer
   PS1 Science Consortium. 1.8-m Ritchey-Chrétien + CCD.
(F52) Pan-STARRS 2, Haleakala  (N20.707384 W156.255910)  US/Hawaii. 1.8-m
   Ritchey-Chrétien + CCD.
(G96) Mt. Lemmon Survey  (N32.442754 W110.788720)  US/Arizona.  Observers T.
   A. Pruyne, B. M. Africano, E. J. Christensen, G. A. Farneth, D. C. Fuls,
   A. R. Gibbs, A. D. Grauer, H. Gröller, J. A. Johnson, R. A. Kowalski, S.
   M. Larson, G. J. Leonard, D. Rankin, R. L. Seaman, F. C. Shelly. 1.5-m
   reflector + 10K CCD.

Orbital elements:  P21kZh5
   Perihelion 2021 Jul 3.161108 +/- 0.202777 TT =  3:51:59 (JD 2459398.661108)
Epoch 2021 Sep 15.0 TT = JDT 2459472.5   Earth MOID: 0.4196   Ma: 0.0190
M  30.87347224 +/- 0.4120677        (J2000 ecliptic)          AutoNEOCP
n   0.41811938 +/- 0.00451878       Peri.  273.98900 +/- 0.4460133
a   1.77120643 +/- 0.01276          Node    32.97244 +/- 0.0447147
e   0.3393591 +/- 0.00274752        Incl.   28.91468 +/- 0.2945536
P   2.36/860.98d           H 21.0   G  0.15   U  9.1  
q 1.17013135 +/- 0.00427978    Q 2.37228150 +/- 0.0218915
From 13 observations 2021 Sept. 11-15; mean residual 0".14
Residuals in arcseconds: 
210911 F52  .06+  .05-    210913 G96  .34+  .10-    210915 F51  .00   .00     
210911 F52  .06-  .02+    210915 807  .15-  .13-    210915 F51  .14+  .11-    
210911 F52  .05-  .00     210915 807  .03-  .00     210915 F51  .06-  .19+    
210913 G96  .44-  .08+    210915 807  .01+  .03+    
210913 G96  .21+  .09+    210915 F51  .04+  .01-    

Ephemerides (geocentric):
Date (UTC) HH   RA              Dec         delta   r     elong  mag " sig PA
---- -- -- --  -------------   -----------  ------ ------ -----  --- ---- ---
2021 09 15 16  03 46 31.588   -11 06 10.17  .54912 1.3452 116.7 22.0 .071  67
2021 09 15 17  03 46 28.386   -11 05 04.13  .54896 1.3454 116.8 22.0 .082  64
2021 09 15 18  03 46 25.177   -11 03 58.04  .54880 1.3455 116.8 22.0 .093  62
2021 09 15 19  03 46 21.959   -11 02 51.91  .54863 1.3457 116.9 22.0 .105  61
2021 09 15 20  03 46 18.732   -11 01 45.74  .54847 1.3459 116.9 22.0 .117  59
2021 09 15 21  03 46 15.498   -11 00 39.51  .54830 1.3461 117.0 22.0 .129  58
2021 09 15 22  03 46 12.255   -10 59 33.24  .54814 1.3462 117.0 22.0 .141  57
2021 09 15 23  03 46 09.004   -10 58 26.93  .54797 1.3464 117.1 22.0 .154  57
2021 09 16 00  03 46 05.745   -10 57 20.56  .54781 1.3466 117.1 22.0 .167  56
2021 09 16 01  03 46 02.478   -10 56 14.15  .54765 1.3467 117.2 22.0 .181  55
2021 09 16 02  03 45 59.202   -10 55 07.70  .54748 1.3469 117.2 22.0 .194  55
2021 09 16 03  03 45 55.919   -10 54 01.19  .54732 1.3471 117.3 22.0 .208  54
2021 09 16 04  03 45 52.627   -10 52 54.64  .54716 1.3472 117.3 22.0 .222  54
2021 09 16 05  03 45 49.326   -10 51 48.04  .54699 1.3474 117.4 22.0 .236  54
2021 09 16 06  03 45 46.018   -10 50 41.40  .54683 1.3476 117.4 22.0 .251  53
2021 09 16 07  03 45 42.701   -10 49 34.70  .54667 1.3478 117.5 22.0 .266  53
2021 09 16 08  03 45 39.376   -10 48 27.96  .54650 1.3479 117.5 22.0 .281  53
2021 09 16 09  03 45 36.043   -10 47 21.17  .54634 1.3481 117.6 22.0 .296  53
2021 09 16 10  03 45 32.701   -10 46 14.34  .54618 1.3483 117.6 22.0 .311  53
2021 09 16 11  03 45 29.351   -10 45 07.46  .54601 1.3484 117.7 22.0 .327  52
2021 09 16 12  03 45 25.993   -10 44 00.53  .54585 1.3486 117.7 21.9 .343  52
2021 09 16 13  03 45 22.627   -10 42 53.55  .54569 1.3488 117.7 21.9 .359  52
2021 09 16 14  03 45 19.252   -10 41 46.53  .54553 1.3490 117.8 21.9 .376  52
2021 09 16 15  03 45 15.869   -10 40 39.45  .54536 1.3491 117.8 21.9 .393  52
2021 09 16 16  03 45 12.478   -10 39 32.33  .54520 1.3493 117.9 21.9 .410  52
2021 09 16 17  03 45 09.078   -10 38 25.17  .54504 1.3495 117.9 21.9 .427  52
2021 09 16 18  03 45 05.670   -10 37 17.95  .54488 1.3496 118.0 21.9 .444  52
2021 09 16 19  03 45 02.254   -10 36 10.69  .54472 1.3498 118.0 21.9 .462  51
2021 09 16 20  03 44 58.830   -10 35 03.38  .54455 1.3500 118.1 21.9 .480  51
2021 09 16 21  03 44 55.397   -10 33 56.02  .54439 1.3502 118.1 21.9 .498  51
2021 09 16 22  03 44 51.956   -10 32 48.61  .54423 1.3503 118.2 21.9 .517  51
2021 09 16 23  03 44 48.507   -10 31 41.16  .54407 1.3505 118.2 21.9 .536  51
2021 09 17 00  03 44 45.049   -10 30 33.65  .54391 1.3507 118.3 21.9 .555  51
2021 09 17 01  03 44 41.583   -10 29 26.10  .54375 1.3508 118.3 21.9 .574  51
2021 09 17 02  03 44 38.108   -10 28 18.50  .54359 1.3510 118.4 21.9 .593  51
2021 09 17 03  03 44 34.626   -10 27 10.86  .54343 1.3512 118.4 21.9 .613  51
2021 09 17 04  03 44 31.135   -10 26 03.16  .54326 1.3513 118.5 21.9 .633  51
2021 09 17 05  03 44 27.635   -10 24 55.42  .54310 1.3515 118.5 21.9 .653  51
2021 09 17 06  03 44 24.128   -10 23 47.63  .54294 1.3517 118.6 21.9 .674  51
2021 09 17 07  03 44 20.612   -10 22 39.79  .54278 1.3519 118.6 21.9 .694  51
2021 09 17 08  03 44 17.087   -10 21 31.90  .54262 1.3520 118.7 21.9 .715  51
2021 09 17 09  03 44 13.554   -10 20 23.96  .54246 1.3522 118.7 21.9 .736  51
2021 09 17 10  03 44 10.013   -10 19 15.98  .54230 1.3524 118.8 21.9 .758  51
2021 09 17 11  03 44 06.464   -10 18 07.94  .54214 1.3526 118.8 21.9 .779  51
2021 09 17 12  03 44 02.906   -10 16 59.86  .54198 1.3527 118.9 21.9 .801  51
2021 09 17 13  03 43 59.340   -10 15 51.73  .54182 1.3529 118.9 21.9 .824  51
2021 09 17 14  03 43 55.765   -10 14 43.55  .54166 1.3531 119.0 21.9 .846  51
2021 09 17 15  03 43 52.182   -10 13 35.32  .54150 1.3532 119.0 21.9 .869  51